FW1093 Weather Reports


time (UTC)temp
C
wind
direction
speed
KPH
gust
KPH
rain 1hr
cm
rain 24hr
cm
rain mn
cm
humidity
%
barometer
mb
20260506232345 15 115 0.0 1.6 0.00 0.15 0.15 95 1007.9
20260506231333 15 135 0.0 3.2 0.00 0.15 0.15 95 1007.8
20260506230322 15 284 0.0 1.6 0.00 0.15 0.15 95 1007.7
20260506225312 15 115 0.0 1.6 0.00 0.15 0.15 95 1007.4
20260506224328 15 125 0.0 0.0 0.00 0.15 0.15 95 1007.4
20260506223315 15 122 0.0 1.6 0.00 0.15 0.15 95 1007.3
20260506222324 15 143 0.0 3.2 0.00 0.15 0.15 95 1007.3
20260506221315 15 127 0.0 3.2 0.00 0.15 0.15 95 1007.3
20260506220351 15 142 0.0 0.0 0.00 0.15 0.15 95 1007.3
20260506215319 15 156 0.0 1.6 0.00 0.15 0.15 95 1007.1
20260506214327 15 137 0.0 0.0 0.00 0.15 0.15 95 1007.1
20260506213335 15 143 0.0 0.0 0.00 0.15 0.15 94 1007.1
20260506212345 14 145 0.0 3.2 0.03 0.15 0.15 94 1007.0
20260506211313 14 153 0.0 0.0 0.03 0.15 0.15 94 1006.9
20260506210329 14 153 0.0 0.0 0.03 0.15 0.15 94 1006.9
20260506205317 15 134 0.0 0.0 0.03 0.15 0.15 94 1006.9
20260506204335 15 143 0.0 1.6 0.03 0.15 0.15 94 1007.0
20260506203341 15 160 0.0 0.0 0.00 0.13 0.13 93 1007.2
20260506202330 15 166 0.0 0.0 0.00 0.13 0.13 93 1007.3
20260506201320 15 160 0.0 0.0 0.00 0.13 0.13 93 1007.5
20260506200328 15 124 0.0 0.0 0.00 0.13 0.13 93 1007.6
20260506195318 15 146 0.0 1.6 0.00 0.13 0.13 93 1007.6
20260506194326 15 139 0.0 0.0 0.00 0.13 0.13 93 1007.7
20260506193312 15 139 0.0 0.0 0.00 0.13 0.13 93 1007.8
20260506192348 15 144 0.0 3.2 0.03 0.13 0.13 93 1008.1
20260506191336 15 146 0.0 1.6 0.03 0.13 0.13 93 1008.0
20260506190330 15 101 1.6 4.8 0.05 0.13 0.13 92 1008.1
20260506185315 15 187 1.6 6.4 0.05 0.13 0.13 92 1008.3
20260506184324 14 231 0.0 3.2 0.05 0.13 0.13 92 1008.3
20260506183331 15 134 0.0 0.0 0.08 0.13 0.13 92 1008.4
20260506182340 14 153 0.0 6.4 0.05 0.10 0.10 92 1008.6
20260506181313 14 126 0.0 4.8 0.10 0.10 0.10 92 1008.8
20260506180344 14 142 1.6 4.8 0.08 0.08 0.08 91 1008.8
20260506175318 15 141 0.0 3.2 0.08 0.08 0.08 90 1008.6
20260506174343 15 122 0.0 1.6 0.08 0.08 0.08 90 1008.6
20260506173316 15 285 0.0 1.6 0.05 0.05 0.05 89 1008.5
20260506172331 15 105 0.0 3.2 0.03 0.03 0.03 87 1008.6
20260506171343 16 178 0.0 0.0 0.00 0.00 0.00 85 1009.0
20260506170337 16 125 0.0 1.6 0.00 0.00 0.00 83 1009.5
20260506165327 16 105 0.0 1.6 0.00 0.00 0.00 80 1009.7
20260506164342 17 63 0.0 1.6 0.00 0.00 0.00 79 1009.6
20260506163330 17 103 0.0 3.2 0.00 0.00 0.00 78 1009.5
20260506162337 17 225 0.0 3.2 0.00 0.00 0.00 78 1009.4
20260506161326 17 160 1.6 4.8 0.00 0.00 0.00 76 1009.5
20260506160315 17 231 0.0 11.3 0.00 0.00 0.00 76 1009.7
20260506155331 17 179 0.0 4.8 0.00 0.00 0.00 77 1009.8
20260506154317 17 235 0.0 4.8 0.00 0.00 0.00 76 1010.0
20260506153326 18 97 0.0 4.8 0.00 0.00 0.00 75 1009.9
20260506152335 18 207 0.0 6.4 0.00 0.00 0.00 76 1010.2
20260506151325 18 132 1.6 6.4 0.00 0.00 0.00 74 1009.9
20260506150333 18 157 0.0 6.4 0.00 0.00 0.00 75 1009.8
20260506145324 18 13 0.0 4.8 0.00 0.00 0.00 75 1009.9
20260506144331 18 133 1.6 6.4 0.00 0.00 0.00 73 1009.9
20260506143322 18 158 1.6 6.4 0.00 0.00 0.00 73 1009.8
20260506142330 18 135 0.0 3.2 0.00 0.00 0.00 74 1010.2
20260506141338 18 71 0.0 3.2 0.00 0.00 0.00 75 1010.1
20260506140335 18 198 0.0 8.0 0.00 0.00 0.00 76 1010.1
20260506135322 17 204 0.0 4.8 0.00 0.00 0.00 77 1010.1
20260506134339 17 320 0.0 4.8 0.00 0.00 0.00 77 1010.2
20260506133334 17 125 0.0 4.8 0.00 0.00 0.00 79 1010.2
20260506132325 17 140 0.0 6.4 0.00 0.00 0.00 80 1010.1
20260506131314 16 128 1.6 8.0 0.00 0.00 0.00 80 1010.0
20260506130328 16 152 0.0 3.2 0.00 0.00 0.00 81 1009.9
20260506125329 16 266 0.0 4.8 0.00 0.00 0.00 82 1010.0
20260506124338 16 165 0.0 6.4 0.00 0.00 0.00 83 1010.1
20260506123333 16 158 1.6 4.8 0.00 0.00 0.00 83 1010.2
20260506122322 16 172 0.0 3.2 0.00 0.00 0.00 83 1010.4
20260506121312 15 149 1.6 8.0 0.00 0.00 0.00 85 1010.7
20260506120321 15 184 1.6 6.4 0.00 0.00 0.00 86 1010.6
20260506115329 15 158 0.0 4.8 0.00 0.00 0.00 87 1010.4
20260506114320 14 121 0.0 8.0 0.00 0.00 0.00 88 1010.3
20260506113357 14 269 0.0 3.2 0.00 0.00 0.00 88 1010.3
20260506112325 14 199 0.0 4.8 0.00 0.00 0.00 89 1010.4
20260506111319 13 174 0.0 1.6 0.00 0.00 0.00 90 1010.5
20260506110351 13 110 0.0 1.6 0.00 0.00 0.00 90 1010.3
20260506105323 13 151 0.0 1.6 0.00 0.00 0.00 91 1010.5
20260506104332 13 150 0.0 1.6 0.00 0.00 0.00 91 1010.5
20260506103320 13 158 0.0 4.8 0.00 0.00 0.00 91 1010.2
20260506102335 12 106 0.0 1.6 0.00 0.00 0.00 91 1010.4
20260506101350 12 212 0.0 1.6 0.00 0.00 0.00 91 1010.3
20260506100317 12 172 0.0 1.6 0.00 0.00 0.00 91 1010.2
20260506095325 12 139 0.0 0.0 0.00 0.00 0.00 91 1010.2
20260506094314 12 162 0.0 1.6 0.00 0.00 0.00 91 1010.2
20260506093349 12 98 0.0 1.6 0.00 0.00 0.00 90 1010.2
20260506092317 12 154 0.0 0.0 0.00 0.00 0.00 90 1010.2
20260506091326 13 172 0.0 1.6 0.00 0.00 0.00 90 1010.1
20260506090314 13 109 0.0 1.6 0.00 0.00 0.00 90 1010.4
20260506085329 12 311 0.0 0.0 0.00 0.00 0.00 90 1010.2
20260506084318 13 174 0.0 0.0 0.00 0.00 0.00 89 1010.5
20260506083335 13 124 0.0 1.6 0.00 0.00 0.00 89 1010.4
20260506082326 13 54 0.0 0.0 0.00 0.00 0.00 89 1010.5
20260506081317 13 40 0.0 0.0 0.00 0.00 0.00 88 1010.5
20260506080330 13 79 0.0 0.0 0.00 0.00 0.00 88 1010.3
20260506073342 13 148 0.0 0.0 0.00 0.00 0.00 87 1010.6
20260506072330 13 160 0.0 0.0 0.00 0.00 0.00 86 1010.6
20260506071318 13 160 0.0 0.0 0.00 0.00 0.00 85 1010.6
20260506070333 13 170 0.0 3.2 0.00 0.00 0.00 84 1010.6
20260506062335 14 248 0.0 3.2 0.00 0.00 0.00 83 1010.4
20260506061325 14 135 0.0 1.6 0.00 0.00 0.00 83 1010.5
20260506060312 14 146 0.0 1.6 0.00 0.00 0.00 83 1010.5
20260506051312 15 82 0.0 0.0 0.00 0.00 0.00 79 1010.9
20260506050325 15 95 0.0 1.6 0.00 0.00 0.00 78 1011.0
20260506044320 15 137 0.0 1.6 0.00 0.00 0.00 77 1011.0
20260506043336 15 101 0.0 1.6 0.00 0.00 0.00 76 1011.0
20260506042328 15 124 0.0 1.6 0.00 0.00 0.00 76 1011.0
20260506041317 16 127 0.0 3.2 0.00 0.00 0.00 75 1010.9
20260506040325 16 165 0.0 3.2 0.00 0.00 0.00 74 1011.0
20260506035314 16 130 0.0 3.2 0.00 0.00 0.00 74 1011.1
20260506034321 16 152 0.0 0.0 0.00 0.00 0.00 73 1011.0
20260506033331 16 124 0.0 1.6 0.00 0.00 0.00 73 1011.0
20260506032319 16 141 1.6 6.4 0.00 0.00 0.00 72 1010.9
20260506031327 16 128 0.0 4.8 0.00 0.00 0.00 72 1010.9
20260506030317 16 198 0.0 6.4 0.00 0.00 0.00 72 1010.9
20260506025327 16 184 0.0 1.6 0.00 0.00 0.00 72 1011.1
20260506024317 16 182 0.0 6.4 0.00 0.00 0.00 71 1011.1
20260506023326 16 117 0.0 0.0 0.00 0.00 0.00 72 1011.0
20260506022314 16 167 0.0 3.2 0.00 0.00 0.00 71 1011.0
20260506021331 16 142 0.0 1.6 0.00 0.00 0.00 71 1011.0
20260506020321 16 167 0.0 1.6 0.00 0.00 0.00 71 1011.0
20260506015357 16 207 0.0 3.2 0.00 0.00 0.00 70 1010.8
20260506014324 16 156 0.0 3.2 0.00 0.00 0.00 69 1010.8
20260506013313 16 152 0.0 3.2 0.00 0.00 0.00 69 1010.6
20260506012330 16 147 0.0 1.6 0.00 0.00 0.00 69 1010.5
20260506011315 17 192 0.0 3.2 0.00 0.00 0.00 68 1010.3
20260506010331 17 174 0.0 1.6 0.00 0.00 0.00 67 1010.3
20260506005319 17 141 0.0 0.0 0.00 0.00 0.00 66 1010.2
20260506004329 17 181 0.0 4.8 0.00 0.00 0.00 65 1010.2
20260506003336 17 217 0.0 3.2 0.00 0.00 0.00 64 1010.0
20260506002326 18 122 0.0 3.2 0.00 0.00 0.00 63 1009.8
20260506001344 18 128 0.0 3.2 0.00 0.00 0.00 62 1009.6
20260506000330 18 138 0.0 6.4 0.00 0.00 0.00 61 1009.6
20260505235323 18 140 0.0 3.2 0.00 0.00 0.00 61 1009.4
20260505234338 19 93 0.0 1.6 0.00 0.00 0.00 61 1009.2
20260505233346 19 136 1.6 4.8 0.00 0.00 0.00 60 1009.3